[[{"header":{"parameterUnit":"m.s-1","parameterCategory":1,"la1":30.2991,"la2":30.254,"lo1":-89.0895,"lo2":-89.0444,"dy":0.0017,"dx":0.0017,"nx":28,"ny":28,"refTime":"2025-01-24T03:00:00:Z","depth":0,"parameterNumber":2,"parameterNumberName":"U-component_of_WINDS"},"data":[0,0,0,0,0,0,0,0,0,0,0,0,0,0,0,0,0,0,0,0,0,0,0,0,0,0,0,0,0,0,0,0,0,0,0,0,0,0,0,0,0,0,0,0,0,0,0,0,0,0,0,0,0,0,0,0,0,0,2.3023,2.3024,0,2.308,2.3081,2.3081,2.3046,2.3044,2.3042,2.3041,2.3097,2.31,2.3103,0,0,0,0,0,0,0,0,0,0,0,0,0,2.2882,2.2885,2.3023,2.3024,2.3024,2.308,2.3081,2.3082,2.3046,2.3044,2.3042,2.304,2.3096,2.31,2.3104,0,0,0,0,0,0,0,0,0,0,0,0,0,2.2942,2.2886,2.3023,2.3013,2.3013,2.308,2.3081,2.3082,2.3046,2.3044,2.3041,2.3039,2.3095,2.3099,2.3104,2.3183,0,0,2.3118,2.312,0,0,0,0,0,0,0,0,2.2938,2.2947,2.3014,2.3014,2.3014,2.3053,2.3052,2.3116,2.3047,2.3034,2.3041,2.3038,2.3084,2.309,2.3106,2.3185,2.3188,2.3119,2.3121,2.3123,2.3125,0,0,0,0,0,0,0,2.2934,2.2944,2.3045,2.3015,2.3015,2.3006,2.3012,2.3064,2.3072,2.3035,2.3032,2.3039,2.3084,2.3102,2.3107,2.3189,2.3118,2.3122,2.3125,2.3127,2.3337,2.334,0,0,0,0,0,0,2.2931,2.2941,2.3044,2.3047,2.2969,2.3011,2.3017,2.3043,2.3072,2.3074,2.3042,2.3038,2.3095,2.3102,2.3109,2.3203,2.3123,2.3128,2.313,2.3334,2.3337,2.3341,0,0,0,0,0,0,2.2928,2.2941,2.3041,2.2994,2.3006,2.3016,2.3045,2.3046,2.3063,2.3077,2.3078,2.3058,2.3093,2.3102,2.3165,2.3205,2.313,2.3134,2.3331,2.3335,2.3339,2.3393,0,0,0,0,0,0,2.2924,2.294,2.297,2.2994,2.3008,2.3097,2.3048,2.3048,2.3071,2.3067,2.3093,2.3095,2.3092,2.3158,2.317,2.321,2.3137,2.3327,2.3333,2.3338,2.3388,2.3399,2.3408,0,0,0,0,0,2.2919,2.2982,2.2972,2.2984,2.3046,2.3099,2.3107,2.3103,2.3075,2.3105,2.3114,2.3094,2.3199,2.3165,2.3177,2.322,2.3325,2.3331,2.3337,2.3383,2.3396,2.3408,0,0,0,0,0,0,2.2961,2.2985,2.2974,2.3046,2.3071,2.3093,2.3131,2.3117,2.315,2.3144,2.3138,2.3144,2.3209,2.3221,2.3183,2.3298,2.3257,2.3266,2.3288,2.3301,2.3311,2.3306,2.3141,0,0,0,0,0,2.2979,2.302,2.3039,2.3101,2.3114,2.3121,2.3144,2.3139,2.3164,2.3174,2.3188,2.3213,2.3251,2.3277,2.3313,2.339,2.3395,2.3425,2.3435,2.3443,2.3451,2.3493,2.3507,2.3361,2.3361,2.3361,0,0,2.3015,2.3034,2.306,2.311,2.3129,2.3172,2.313,2.3177,2.3208,2.3181,2.3241,2.3252,2.328,2.335,2.3382,2.3362,2.3493,2.3451,2.3458,2.3461,2.3501,2.3515,2.3527,2.3366,2.3365,2.3364,0,0,2.3104,2.3122,2.3176,2.3196,2.3226,2.323,2.3243,2.3268,2.3275,2.3335,2.3316,2.3354,2.342,2.3441,2.346,2.3559,2.3541,2.3571,2.3623,2.3664,2.3676,2.3686,2.3721,2.3734,2.3579,2.3579,2.3579,0,2.3145,2.321,2.3206,2.3255,2.3277,2.3256,2.3311,2.333,2.337,2.3386,2.3363,2.3448,2.3464,2.3539,2.3564,2.358,2.3595,2.3567,2.3674,2.3685,2.3694,2.3728,2.3741,2.3582,2.3582,2.3581,2.3581,0,2.326,2.3305,2.3345,2.3385,2.3412,2.3464,2.3468,2.3496,2.3489,2.3496,2.3559,2.3578,2.3619,2.3636,2.363,2.3711,2.3698,2.3675,2.3634,2.3711,2.3743,2.3756,2.3587,2.3586,2.3585,2.3584,0,0,2.3374,2.3413,2.3427,2.3446,2.3478,2.3512,2.3563,2.3604,2.3628,2.3657,2.3699,2.3757,2.3737,2.3759,2.3755,2.3791,2.3868,2.3764,2.3764,2.3782,2.396,2.3976,2.3991,2.3858,2.386,2.3862,2.3958,0,2.3465,2.3554,2.3553,2.3636,2.3678,2.3659,2.3704,2.3728,2.3737,2.3773,2.3782,2.3823,2.3793,2.3806,2.3841,2.3852,2.3904,2.3845,2.3897,2.3899,2.389,2.4008,2.4025,2.4114,2.397,2.3972,2.3973,0,2.3582,2.3615,2.3703,2.373,2.3747,2.3788,2.3825,2.3861,2.3888,2.3891,2.3917,2.3908,2.396,2.3918,2.399,2.395,2.3971,2.398,2.3983,2.3987,2.394,2.4015,2.4143,2.4156,2.3993,2.3991,2.399,0,2.3657,2.3724,2.3785,2.3801,2.3834,2.3863,2.3878,2.3903,2.3928,2.3961,2.3977,2.4016,2.4037,2.4067,2.4068,2.4037,2.4141,2.4099,2.4145,2.4145,2.4166,2.4165,2.4299,2.4181,2.4181,2.4181,2.4181,0,2.3757,2.3812,2.3819,2.3857,2.3918,2.3916,2.3976,2.3988,2.4011,2.4051,2.4037,2.4075,2.4074,2.4113,2.4114,2.4174,2.4183,2.4187,2.4187,2.4188,2.4188,2.4202,2.4195,2.4185,2.4184,2.4183,2.4182,0,2.3851,2.3858,2.3924,2.395,2.3958,2.4002,2.4024,2.406,2.4068,2.4118,2.413,2.4142,2.4186,2.4191,2.4243,2.4244,2.4316,2.4309,2.4306,2.4305,2.4351,2.4346,2.4498,2.4518,2.4388,2.4389,2.439,0,2.3914,2.3956,2.3987,2.4013,2.403,2.4072,2.4098,2.4099,2.4126,2.4162,2.4193,2.4237,2.4271,2.4344,2.4357,2.4396,2.439,2.4441,2.4396,2.4396,2.4391,2.4388,2.4392,2.4449,2.445,2.4452,2.4452,0,2.4026,2.4028,2.4066,2.4106,2.4138,2.4169,2.4198,2.422,2.4224,2.4256,2.4302,2.4329,2.4383,2.4426,2.4466,2.4481,2.4468,2.4467,2.448,2.4481,2.4478,2.448,2.433,2.4463,2.4462,2.4461,2.4461,2.446,2.4106,2.4143,2.4171,2.4214,2.4237,2.4265,2.43,2.4313,2.4352,2.4396,2.4394,2.4445,2.4472,2.4524,2.4542,2.4582,2.4565,2.4584,2.4588,2.4593,2.4597,2.4472,2.4589,2.4589,2.4589,2.4589,2.4588,0,2.4217,2.4235,2.4275,2.4317,2.4351,2.4337,2.4369,2.4399,2.4444,2.4471,2.4506,2.456,2.4602,2.4619,2.4661,2.469,2.4685,2.4701,2.4698,2.4702,2.461,2.4595,2.4704,2.4704,2.4704,2.4704,2.4704,2.4704,2.4279,2.434,2.4346,2.4419,2.4436,2.4486,2.4506,2.4532,2.4554,2.4614,2.465,2.4661,2.4685,2.4728,2.4767,2.4771,2.4787,2.4805,2.4806,2.472,2.4708,2.4697,2.4683,2.4809,2.4809,2.4895,2.4896,2.4896]},{"header":{"parameterUnit":"m.s-1","parameterCategory":1,"la1":30.2991,"la2":30.254,"lo1":-89.0895,"lo2":-89.0444,"dy":0.0017,"dx":0.0017,"nx":28,"ny":28,"refTime":"2025-01-24T03:00:00:Z","depth":0,"parameterNumber":3,"parameterNumberName":"V-component_of_WINDS"},"data":[0,0,0,0,0,0,0,0,0,0,0,0,0,0,0,0,0,0,0,0,0,0,0,0,0,0,0,0,0,0,0,0,0,0,0,0,0,0,0,0,0,0,0,0,0,0,0,0,0,0,0,0,0,0,0,0,0,0,-4.4484,-4.4486,0,-4.4639,-4.4641,-4.4643,-4.4613,-4.461,-4.4608,-4.4605,-4.476,-4.4767,-4.4773,0,0,0,0,0,0,0,0,0,0,0,0,0,-4.4159,-4.4165,-4.4484,-4.4486,-4.4488,-4.4639,-4.4641,-4.4643,-4.4614,-4.461,-4.4607,-4.4604,-4.4758,-4.4766,-4.4774,0,0,0,0,0,0,0,0,0,0,0,0,0,-4.4305,-4.4167,-4.4484,-4.4492,-4.4494,-4.4639,-4.4641,-4.4644,-4.4614,-4.461,-4.4606,-4.4602,-4.4755,-4.4765,-4.4775,-4.492,0,0,-4.4806,-4.481,0,0,0,0,0,0,0,0,-4.4297,-4.4317,-4.4489,-4.4491,-4.4494,-4.4603,-4.4583,-4.4736,-4.4616,-4.4569,-4.4605,-4.46,-4.4711,-4.4724,-4.4762,-4.4928,-4.4934,-4.4807,-4.4813,-4.4817,-4.482,0,0,0,0,0,0,0,-4.4287,-4.431,-4.4545,-4.4491,-4.4495,-4.4486,-4.4502,-4.4612,-4.4661,-4.4572,-4.4571,-4.459,-4.4712,-4.4753,-4.4766,-4.4937,-4.4806,-4.4815,-4.4822,-4.4825,-4.5227,-4.5231,0,0,0,0,0,0,-4.4275,-4.4302,-4.454,-4.455,-4.4384,-4.4495,-4.4513,-4.4572,-4.466,-4.4669,-4.4593,-4.4588,-4.4738,-4.4754,-4.4771,-4.4946,-4.4817,-4.4826,-4.4832,-4.5222,-4.5228,-4.5233,0,0,0,0,0,0,-4.4268,-4.4296,-4.4534,-4.4426,-4.4455,-4.4505,-4.4571,-4.4577,-4.4618,-4.4675,-4.4684,-4.4626,-4.4735,-4.4757,-4.4883,-4.4951,-4.4831,-4.484,-4.5217,-4.5224,-4.5231,-4.5298,0,0,0,0,0,0,-4.4259,-4.4294,-4.4351,-4.4427,-4.4461,-4.4645,-4.4576,-4.4583,-4.4636,-4.4631,-4.4709,-4.4718,-4.4733,-4.4869,-4.4893,-4.4963,-4.4848,-4.5211,-4.522,-4.5228,-4.529,-4.5306,-4.5321,0,0,0,0,0,-4.4247,-4.4363,-4.4354,-4.4383,-4.4534,-4.4649,-4.4669,-4.4685,-4.4642,-4.4699,-4.4735,-4.4715,-4.494,-4.4882,-4.4909,-4.4983,-4.5207,-4.5218,-4.5228,-4.5283,-4.5303,-4.532,0,0,0,0,0,0,-4.4293,-4.4373,-4.4364,-4.4509,-4.4573,-4.4644,-4.4717,-4.4706,-4.4783,-4.4775,-4.4791,-4.4809,-4.4937,-4.4972,-4.4906,-4.5127,-4.5067,-4.5083,-4.51,-4.5119,-4.5134,-4.5123,-4.4856,0,0,0,0,0,-4.432,-4.4408,-4.4473,-4.4595,-4.4627,-4.4667,-4.4718,-4.4725,-4.4791,-4.4818,-4.4863,-4.4927,-4.5012,-4.5068,-4.5149,-4.5295,-4.5311,-4.5359,-4.5374,-4.5387,-4.54,-4.5479,-4.5501,-4.5267,-4.5267,-4.5267,0,0,-4.4376,-4.4431,-4.4486,-4.4605,-4.4656,-4.4745,-4.4689,-4.4787,-4.4854,-4.4832,-4.4954,-4.499,-4.5062,-4.5199,-4.5261,-4.5233,-4.5468,-4.54,-4.5409,-4.5417,-4.5492,-4.5514,-4.5533,-4.5274,-4.5273,-4.5272,0,0,-4.4525,-4.4576,-4.4682,-4.4734,-4.4811,-4.4836,-4.4861,-4.4935,-4.4958,-4.5081,-4.5067,-4.5145,-4.5291,-4.5343,-4.5389,-4.5556,-4.554,-4.5582,-4.5661,-4.5738,-4.5756,-4.5772,-4.5831,-4.5852,-4.5595,-4.5596,-4.5596,0,-4.4585,-4.4721,-4.4738,-4.4837,-4.4889,-4.4875,-4.4981,-4.503,-4.5129,-4.5165,-4.5132,-4.5314,-4.5362,-4.551,-4.5551,-4.5588,-4.5616,-4.5573,-4.5752,-4.5769,-4.5784,-4.584,-4.5862,-4.56,-4.5599,-4.5599,-4.5599,0,-4.4791,-4.4885,-4.4961,-4.5059,-4.5119,-4.5222,-4.5252,-4.5311,-4.5313,-4.5341,-4.5466,-4.5522,-4.5614,-4.565,-4.5652,-4.5798,-4.5778,-4.5748,-4.5688,-4.5811,-4.5864,-4.5885,-4.5606,-4.5605,-4.5604,-4.5602,0,0,-4.4973,-4.5078,-4.5105,-4.5148,-4.5232,-4.5305,-4.5405,-4.5496,-4.5546,-4.5615,-4.5699,-4.5823,-4.5796,-4.5847,-4.5855,-4.5922,-4.6049,-4.5884,-4.5886,-4.5912,-4.6212,-4.6233,-4.6258,-4.604,-4.6044,-4.6047,-4.6205,0,-4.5129,-4.5309,-4.5326,-4.5486,-4.5572,-4.5559,-4.5647,-4.5707,-4.5735,-4.5812,-4.5843,-4.593,-4.5888,-4.5919,-4.5985,-4.602,-4.611,-4.6009,-4.6116,-4.612,-4.6098,-4.6286,-4.6309,-4.6456,-4.6226,-4.623,-4.6232,0,-4.5335,-4.5411,-4.558,-4.565,-4.5687,-4.5766,-4.585,-4.5923,-4.599,-4.6006,-4.6064,-4.6062,-4.6164,-4.61,-4.624,-4.6171,-4.6216,-4.624,-4.6246,-4.6256,-4.6183,-4.63,-4.6503,-4.6525,-4.6265,-4.6263,-4.626,0,-4.545,-4.5594,-4.5713,-4.5751,-4.5836,-4.5891,-4.5929,-4.5992,-4.6045,-4.6118,-4.6152,-4.6236,-4.6282,-4.6345,-4.6366,-4.6318,-4.6505,-4.6443,-4.652,-4.6519,-4.656,-4.6557,-4.6772,-4.659,-4.6589,-4.6589,-4.6588,0,-4.5622,-4.5726,-4.5766,-4.5839,-4.5955,-4.5972,-4.6085,-4.612,-4.6176,-4.6255,-4.6248,-4.6322,-4.6345,-4.6422,-4.6438,-4.6551,-4.6572,-4.6587,-4.659,-4.6587,-4.6585,-4.6616,-4.6606,-4.6595,-4.6593,-4.6592,-4.6591,0,-4.577,-4.5802,-4.5931,-4.6001,-4.6021,-4.6102,-4.6161,-4.6231,-4.6258,-4.6358,-4.6382,-4.6425,-4.6515,-4.6542,-4.6651,-4.6662,-4.6793,-4.6788,-4.6771,-4.6771,-4.6847,-4.6839,-4.7089,-4.7122,-4.6919,-4.692,-4.6922,0,-4.5878,-4.5958,-4.6036,-4.6089,-4.6129,-4.6214,-4.6268,-4.6288,-4.6345,-4.6426,-4.6486,-4.6576,-4.6648,-4.6793,-4.6833,-4.6915,-4.6911,-4.6993,-4.6923,-4.6918,-4.6911,-4.6906,-4.6913,-4.7006,-4.7008,-4.701,-4.7011,0,-4.6066,-4.6077,-4.6156,-4.624,-4.6305,-4.6372,-4.6437,-4.648,-4.6509,-4.6572,-4.6665,-4.6722,-4.6833,-4.6921,-4.7005,-4.7042,-4.7031,-4.7033,-4.7055,-4.7053,-4.704,-4.7047,-4.6806,-4.7027,-4.7025,-4.7024,-4.7023,-4.7023,-4.6197,-4.6266,-4.6332,-4.642,-4.647,-4.653,-4.6599,-4.6635,-4.6713,-4.6806,-4.6812,-4.6912,-4.6975,-4.7087,-4.7128,-4.7206,-4.7182,-4.7214,-4.7222,-4.723,-4.7235,-4.7028,-4.7221,-4.7221,-4.7221,-4.722,-4.722,0,-4.6383,-4.6425,-4.6505,-4.6596,-4.6664,-4.6649,-4.6719,-4.6777,-4.6866,-4.6926,-4.6998,-4.7104,-4.7189,-4.7235,-4.732,-4.7373,-4.737,-4.7394,-4.739,-4.7399,-4.7253,-4.7225,-4.7395,-4.7395,-4.7395,-4.7395,-4.7395,-4.7395,-4.6488,-4.6605,-4.6623,-4.6764,-4.6805,-4.6904,-4.6945,-4.6999,-4.7048,-4.7167,-4.7238,-4.7267,-4.7322,-4.741,-4.7487,-4.7498,-4.7529,-4.7557,-4.7565,-4.7427,-4.7409,-4.7392,-4.7366,-4.7563,-4.7564,-4.7705,-4.7706,-4.7707]}]]